Fremont, NE

11:17 PM CDT on March 26, 2017 (GMT -0500)
Fremont Municipal

Weather History for KFET - August, 2013

Change the Weather History Date:

Tuesday, August 27, 2013

  Actual Average Record
Temperature  
Mean Temperature 86 °F -  
Max Temperature 96 °F 84 °F 109 °F (1955)
Min Temperature 76 °F 61 °F 45 °F (1971)
Cooling Degree Days 21    
Growing Degree Days 36 (Base 50)    
Moisture  
Dew Point 69 °F    
Average Humidity 59    
Maximum Humidity 71    
Minimum Humidity 40    
Precipitation  
Precipitation 0.00 in - - ()
Sea Level Pressure  
Sea Level Pressure 29.94 in    
Wind  
Wind Speed 10 mph (SSW)    
Max Wind Speed 15 mph    
Max Gust Speed 23 mph    
Visibility 10 miles    
Events      
Averages and records for this station are not official NWS values.
T = Trace of Precipitation, MM = Missing Value Source: NWS Daily Summary

Daily Weather History Graph

Daily Weather History Graph

Search for Another Location

Airport or City:

Trip Planner

Search our weather history database for the weather conditions in past years. The results will help you decide how hot, cold, wet, or windy it might be!

Date:

Astronomy

Aug. 27, 2013 Rise Set
Actual Time 6:47 AM CDT 8:06 PM CDT
Civil Twilight 6:18 AM CDT 8:35 PM CDT
Nautical Twilight 5:44 AM CDT 9:09 PM CDT
Astronomical Twilight 5:07 AM CDT 9:46 PM CDT
Moon 11:55 PM CDT 1:51 PM CDT
Length of Visible Light 14h 16m
Length of Day
13h 19m
Waning Gibbous, 57% of the Moon is Illuminated
Aug 27
Waning Gibbous
Aug 28
Last Quarter
Sep 5
New
Sep 12
First Quarter
Sep 19
Full

Hourly Weather History & Observations

Time (CDT) Temp. Heat Index Dew Point Humidity Pressure Visibility Wind Dir Wind Speed Gust Speed Precip Events Conditions
12:15 AM 81.7 °F 84.9 °F 68.9 °F 65% 29.96 in 10.0 mi South 9.2 mph - N/A   Clear
12:35 AM 81.7 °F 84.9 °F 68.9 °F 65% 29.96 in 10.0 mi South 11.5 mph 17.3 mph N/A   Clear
12:55 AM 81.3 °F 84.3 °F 68.7 °F 65% 29.96 in 10.0 mi South 12.7 mph 16.1 mph N/A   Clear
1:15 AM 80.6 °F 83.5 °F 68.7 °F 67% 29.96 in 10.0 mi South 11.5 mph - N/A   Clear
1:35 AM 80.2 °F 83.1 °F 68.9 °F 68% 29.96 in 10.0 mi South 10.4 mph 18.4 mph N/A   Clear
1:55 AM 79.9 °F - 68.7 °F 69% 29.96 in 10.0 mi South 9.2 mph - N/A   Clear
2:15 AM 79.7 °F - 68.9 °F 69% 29.96 in 10.0 mi South 8.1 mph - N/A   Clear
2:35 AM 79.3 °F - 68.7 °F 70% 29.96 in 10.0 mi South 11.5 mph - N/A   Clear
2:55 AM 79.0 °F - 68.4 °F 70% 29.96 in 10.0 mi South 11.5 mph 17.3 mph N/A   Clear
3:15 AM 78.6 °F - 68.2 °F 70% 29.96 in 10.0 mi South 10.4 mph 17.3 mph N/A   Clear
3:35 AM 78.3 °F - 68.2 °F 71% 29.95 in 10.0 mi South 9.2 mph - N/A   Clear
3:55 AM 78.3 °F - 68.0 °F 71% 29.95 in 10.0 mi SSW 9.2 mph 17.3 mph N/A   Clear
4:15 AM 77.9 °F - 67.8 °F 71% 29.94 in 10.0 mi SSW 9.2 mph - N/A   Clear
4:35 AM 77.7 °F - 67.5 °F 71% 29.94 in 10.0 mi SSW 9.2 mph - N/A   Clear
4:55 AM 77.5 °F - 67.3 °F 71% 29.94 in 10.0 mi SSW 6.9 mph - N/A   Clear
5:15 AM 77.9 °F - 67.1 °F 69% 29.94 in 10.0 mi SSW 9.2 mph 17.3 mph N/A   Clear
5:35 AM 77.9 °F - 66.7 °F 68% 29.94 in 10.0 mi SSW 9.2 mph - N/A   Clear
5:55 AM 77.4 °F - 66.6 °F 69% 29.95 in 10.0 mi SSW 8.1 mph 18.4 mph N/A   Clear
6:15 AM 77.4 °F - 66.4 °F 69% 29.94 in 10.0 mi SSW 9.2 mph - N/A   Clear
6:35 AM 77.0 °F - 66.4 °F 70% 29.94 in 10.0 mi SSW 9.2 mph 16.1 mph N/A   Clear
6:55 AM 77.0 °F - 66.2 °F 69% 29.95 in 10.0 mi SSW 11.5 mph 19.6 mph N/A   Clear
7:15 AM 76.6 °F - 66.4 °F 70% 29.96 in 10.0 mi SSW 9.2 mph - N/A   Clear
7:35 AM 76.8 °F - 66.6 °F 70% 29.96 in 10.0 mi SW 9.2 mph - N/A   Clear
7:55 AM 77.4 °F - 66.7 °F 70% 29.95 in 10.0 mi SW 8.1 mph - N/A   Clear
8:15 AM 78.1 °F - 66.9 °F 68% 29.95 in 10.0 mi SSW 11.5 mph 16.1 mph N/A   Clear
8:35 AM 79.0 °F - 67.5 °F 68% 29.95 in 10.0 mi SW 10.4 mph - N/A   Clear
8:55 AM 79.9 °F - 67.3 °F 65% 29.95 in 10.0 mi SW 10.4 mph - N/A   Clear
9:15 AM 80.8 °F 83.3 °F 67.6 °F 64% 29.96 in 10.0 mi SW 11.5 mph - N/A   Clear
9:35 AM 81.9 °F 84.8 °F 68.2 °F 63% 29.96 in 10.0 mi SW 10.4 mph 19.6 mph N/A   Clear
9:55 AM 82.8 °F 86.0 °F 68.4 °F 62% 29.96 in 10.0 mi SSW 9.2 mph 17.3 mph N/A   Clear
10:15 AM 84.2 °F 87.9 °F 68.7 °F 60% 29.96 in 10.0 mi SSW 11.5 mph 16.1 mph N/A   Clear
10:35 AM 84.9 °F 88.2 °F 68.4 °F 57% 29.95 in 10.0 mi SSW 12.7 mph 18.4 mph N/A   Clear
10:55 AM 85.5 °F 89.1 °F 68.5 °F 57% 29.95 in 10.0 mi SW 10.4 mph 18.4 mph N/A   Clear
11:15 AM 86.5 °F 90.7 °F 69.1 °F 56% 29.95 in 10.0 mi SSW 11.5 mph - N/A   Clear
11:35 AM 87.3 °F 91.6 °F 69.3 °F 55% 29.95 in 10.0 mi SSW 11.5 mph - N/A   Clear
11:55 AM 88.7 °F 93.0 °F 68.9 °F 52% 29.95 in 10.0 mi SSW 12.7 mph - N/A   Clear
12:15 PM 89.8 °F 95.1 °F 70.0 °F 52% 29.95 in 10.0 mi South 12.7 mph 16.1 mph N/A   Clear
12:35 PM 90.0 °F 95.0 °F 69.8 °F 51% 29.94 in 10.0 mi South 12.7 mph - N/A   Clear
12:55 PM 90.5 °F 95.5 °F 69.4 °F 50% 29.94 in 10.0 mi SSW 11.5 mph - N/A   Clear
1:15 PM 91.4 °F 97.3 °F 70.5 °F 50% 29.93 in 10.0 mi South 9.2 mph 16.1 mph N/A   Clear
1:35 PM 92.7 °F 99.4 °F 70.7 °F 49% 29.93 in 10.0 mi South 10.4 mph - N/A   Clear
1:55 PM 92.8 °F 99.2 °F 70.5 °F 48% 29.93 in 10.0 mi South 9.2 mph 17.3 mph N/A   Clear
2:15 PM 93.7 °F 101.1 °F 71.1 °F 48% 29.93 in 10.0 mi SSW 11.5 mph 17.3 mph N/A   Clear
2:35 PM 94.1 °F 101.8 °F 71.4 °F 48% 29.92 in 10.0 mi South 11.5 mph 18.4 mph N/A   Clear
2:55 PM 94.8 °F 101.5 °F 70.3 °F 45% 29.92 in 10.0 mi SSW 11.5 mph 18.4 mph N/A   Clear
3:15 PM 95.0 °F 101.9 °F 70.3 °F 45% 29.92 in 10.0 mi SSW 11.5 mph 17.3 mph N/A   Clear
3:35 PM 95.9 °F 100.7 °F 68.0 °F 40% 29.92 in 10.0 mi SW 15.0 mph 23.0 mph N/A   Clear
3:55 PM 96.1 °F 102.3 °F 69.3 °F 42% 29.92 in 10.0 mi SW 10.4 mph - N/A   Clear
4:15 PM 96.1 °F 102.3 °F 69.4 °F 42% 29.91 in 10.0 mi South 11.5 mph 17.3 mph N/A   Clear
4:35 PM 96.1 °F 102.3 °F 69.4 °F 42% 29.91 in 10.0 mi SSW 9.2 mph 16.1 mph N/A   Clear
4:55 PM 95.9 °F 102.5 °F 69.8 °F 43% 29.91 in 10.0 mi SSW 11.5 mph - N/A   Clear
5:15 PM 95.5 °F 101.2 °F 69.1 °F 42% 29.91 in 10.0 mi SSW 9.2 mph - N/A   Clear
5:35 PM 95.2 °F 101.0 °F 69.3 °F 43% 29.91 in 10.0 mi SSW 9.2 mph - N/A   Clear
5:55 PM 94.8 °F 100.3 °F 69.1 °F 43% 29.90 in 10.0 mi SSW 10.4 mph - N/A   Clear
6:15 PM 94.1 °F 98.9 °F 68.5 °F 43% 29.91 in 10.0 mi SSW 8.1 mph - N/A   Clear
6:35 PM 93.0 °F 98.4 °F 69.4 °F 46% 29.91 in 10.0 mi SSW 6.9 mph - N/A   Clear
6:55 PM 91.8 °F 96.5 °F 68.9 °F 47% 29.90 in 10.0 mi SW 6.9 mph - N/A   Clear
7:15 PM 90.3 °F 95.2 °F 69.6 °F 50% 29.90 in 10.0 mi SSW 3.5 mph - N/A   Clear
7:35 PM 89.2 °F 94.9 °F 70.9 °F 54% 29.91 in 10.0 mi South 3.5 mph - N/A   Clear
7:55 PM 87.8 °F 93.4 °F 70.7 °F 57% 29.91 in 10.0 mi South 4.6 mph - N/A   Clear
8:15 PM 85.6 °F 90.4 °F 70.2 °F 60% 29.91 in 10.0 mi South 4.6 mph - N/A   Clear
8:35 PM 84.4 °F 89.0 °F 70.5 °F 63% 29.91 in 10.0 mi SSE 4.6 mph - N/A   Clear
8:55 PM 86.4 °F 91.4 °F 70.7 °F 59% 29.92 in 10.0 mi South 8.1 mph - N/A   Clear
9:15 PM 85.1 °F 90.1 °F 70.7 °F 62% 29.92 in 10.0 mi South 9.2 mph - N/A   Clear
9:35 PM 85.6 °F 90.4 °F 70.5 °F 60% 29.92 in 10.0 mi South 9.2 mph - N/A   Clear
9:55 PM 85.5 °F 89.8 °F 69.4 °F 59% 29.92 in 10.0 mi South 8.1 mph - N/A   Clear
10:15 PM 85.1 °F 88.2 °F 68.0 °F 56% 29.93 in 10.0 mi South 10.4 mph - N/A   Clear
10:35 PM 84.2 °F 87.3 °F 68.0 °F 58% 29.93 in 10.0 mi South 6.9 mph - N/A   Clear
10:55 PM 83.3 °F 86.4 °F 68.2 °F 60% 29.93 in 10.0 mi South 8.1 mph - N/A   Clear
11:15 PM 82.9 °F 85.6 °F 67.5 °F 59% 29.93 in 10.0 mi South 8.1 mph - N/A   Clear
11:35 PM 82.4 °F 85.0 °F 67.1 °F 60% 29.93 in 10.0 mi South 11.5 mph - N/A   Clear
11:55 PM 81.5 °F 83.9 °F 66.7 °F 61% 29.93 in 10.0 mi South 9.2 mph - N/A   Clear